Погода в Сузаке

Узбекистан     40°44′22″N   72°00′23″E
темп.,
°C
ветер,
м/с
пор.,
м/с
влажн.,
%
обл.,
%
осадки,
мм/ч
давл.,
гПа
погр.,
м
1 марта, пн
пн123:00+4св23510 0.0 102646
02:00+3св235412 0.0 102532
05:00+2всв125420 0.0 102522
08:00+3всв3447100 0.0 1026156
11:00+9св332677 0.0 1023532
14:00+12всв22190 0.0 1021871
17:00+13вюв11190 0.0 1022758
20:00+9всв11270 0.0 102622
2 марта, вт
вт223:00+7св23410 0.0 102738
02:00+5св33480 0.0 102844
05:00+4св334834 0.0 102754
08:00+5св243889 0.0 1027111
11:00+11св232395 0.0 1024454
14:00+14всв2118100 0.0 1022731
17:00+14св1120100 0.0 1022574
20:00+11ссв1126100 0.0 102423
3 марта, ср
ср323:00+10ссв2241100 0.0 102434
02:00+9с1142100 0.0 102423
05:00+9ссв2350100 0.0 102492
08:00+9ссв3560100 0.0 1025277
11:00+11ссв4551100 0.0 1023772
14:00+12с4343100 0.0 10211223
17:00+12ссв3449100 0.0 1022699
20:00+9с466498 0.0 1023301
4 марта, чт
чт423:00+8с477699 0.1 1024329
02:00+7ссв347975 0.0 1024111
05:00+6св227782 0.0 102432
08:00+8всв117297 0.0 102463
11:00+12ссв235197 0.0 1021837
14:00+15всв223699 0.0 10191141
17:00+15ю1136100 0.0 1019770
20:00+13з4842100 0.0 1022308
5 марта, пт
пт523:00+12ю2555100 0.0 1024377
02:00+10св3361100 0.0 102298
05:00+9всв4769100 0.1 1022208
08:00+8юз71283100 2.6 10241008
11:00+10зюз71048100 4.0 10251080
14:00+13з3437100 0.0 10231592
17:00+12всв555070 0.0 1024816
20:00+9всв47650 0.0 1027210